Home   Weather   Quispamsis   Past weeks

Flag for Canada Past Weather in Quispamsis, New Brunswick, Canada — Yesterday and Last 2 Weeks

Now
30 °F

Passing clouds.


Feels Like: 30 °F
Forecast: N/A
Wind: 2 mph from North

Location: Saint John

Current Time: Dec 2, 2016 at 6:36:44 pm

Latest Report: Dec 2, 2016 at 6:00 pm


Visibility: 15 mi

Pressure: 29.64 "Hg

Humidity: 100%

Dew Point: 30 °F

Location of QuispamsisLocation

Past Weather in Quispamsis — Graph

°F

Quispamsis Temperature Yesterday

Maximum temperature yesterday: 43 °F (at 4:00 pm)
Minimum temperature yesterday: 34 °F (at 8:00 am)
Average temperature yesterday: 37 °F

High & Low Weather Summary for the Past Weeks

 TemperatureHumidityPressure
High52 °F (Nov 20, 4:00 pm)100% (Nov 17, 5:00 pm)30.40 "Hg (Nov 17, 5:00 pm)
Low19 °F (Nov 29, 7:00 am)53% (Nov 28, 1:00 pm)29.28 "Hg (Dec 1, 6:00 pm)
Average37 °F89%29.87 "Hg
* Reported Nov 17 5:00 pm — Dec 2 5:00 pm, Quispamsis, Weather by CustomWeather, © 2016

Note: Actual official high and low records may vary slightly from our data, if they occured in-between our weather recording intervals... More about our weather records

Advertising

Quispamsis Weather History for the Previous 24 Hours

Scroll right to see more
 ConditionsComfort  
Time TempWeatherWind HumidityBarometerVisibility
5:00 pm
Fri, Dec 2
32 °FPassing clouds.3 mph93%29.63 "Hg15 mi
4:00 pm37 °FPassing clouds.8 mph75%29.62 "Hg15 mi
3:00 pm39 °FScattered clouds.8 mph70%29.61 "Hg15 mi
2:00 pm39 °FPartly sunny.12 mph70%29.60 "Hg15 mi
1:00 pm39 °FPartly sunny.12 mph75%29.60 "Hg15 mi
12:00 pm39 °FPartly sunny.12 mph70%29.60 "Hg15 mi
11:00 am37 °FPassing clouds.12 mph75%29.60 "Hg15 mi
10:00 am36 °FPassing clouds.16 mph81%29.59 "Hg15 mi
9:00 am32 °FPartly sunny.12 mph93%29.58 "Hg15 mi
8:00 am32 °FScattered clouds.10 mph100%29.56 "Hg15 mi
7:00 am32 °FIce fog.12 mph93%29.53 "Hg6 mi
6:00 am34 °FFog.10 mph93%29.50 "Hg6 mi
5:00 am34 °FFog.9 mph93%29.49 "Hg6 mi
4:00 am34 °FSandstorm.12 mph100%29.46 "Hg6 mi
3:00 am34 °FDrizzle. Fog.13 mph100%29.45 "Hg4 mi
2:00 am34 °FDrizzle. Fog.9 mph100%29.43 "Hg3 mi
1:00 am34 °FDrizzle. Fog.10 mph100%29.42 "Hg3 mi
12:00 am34 °FDrizzle. Fog.8 mph100%29.42 "Hg3 mi
11:00 pm
Thu, Dec 1
34 °FDrizzle. Fog.10 mph100%29.39 "Hg3 mi
10:00 pm34 °FDrizzle. Fog.17 mph100%29.37 "Hg3 mi
9:00 pm34 °FDrizzle. Fog.10 mph100%29.34 "Hg3 mi
8:00 pm34 °FDrizzle. Fog.20 mph100%29.32 "Hg3 mi
7:00 pm39 °FDrizzle. Fog.12 mph100%29.29 "Hg3 mi
6:00 pm43 °FDrizzle. Fog.12 mph100%29.28 "Hg3 mi
Weather by CustomWeather, © 2016

See weather overviewHow to use our weather pages